RH
7 7 6 10 20 26 33 41 51 55 53 37 22 35 41 51 41 30 29 35 34 34 32 31 38 43 45 51 61 67 63 87 98 98 98 99 87 44 57 52 70 94 97 97 100 85 79
6 7 6 9 17 23 29 33 48 58 61 60 32 25 46 51 48 36 30 36 39 34 33 35 43 44 46 44 59 62 75 81 95 96 100 98 87 61 60 68 65 80 93 83 97 94 87
9 7 7 8 14 20 30 29 34 50 58 63 59 24 48 54 63 47 33 31 45 45 46 51 45 63 41 43 48 61 66 68 84 99 97 99 90 64 58 65 69 80 98 84 88 88 92
12 7 6 7 14 14 32 26 30 34 46 60 63 48 41 54 70 58 38 35 39 47 50 53 54 51 39 50 52 60 58 66 90 98 98 100 98 76 60 72 72 80 85 90 82 90 88
19 8 6 6 11 12 23 28 31 38 39 46 60 49 30 54 67 66 50 48 50 60 68 64 51 52 59 88 74 54 57 62 77 98 98 98 98 78 64 66 78 90 73 70 74 70 68
15 10 7 6 9 11 16 28 34 36 40 35 48 46 36 52 67 75 66 62 50 50 59 61 71 77 96 98 93 86 55 58 81 96 93 99 96 83 73 82 92 90 96 99 76 76 70
19 7 7 6 7 10 15 25 33 36 35 36 36 45 43 50 61 73 77 70 74 65 61 64 76 83 98 100 98 98 70 64 94 94 89 99 97 78 78 100 87 77 87 98 78 77 79
22 7 6 6 7 8 13 22 33 30 32 33 34 36 42 39 52 68 77 73 76 79 75 81 88 87 100 97 96 92 95 93 97 88 99 98 99 85 76 99 83 85 77 94 92 84 77
16 6 5 6 6 8 13 17 30 32 28 33 29 32 41 32 47 57 74 76 71 80 86 86 79 82 92 95 94 97 92 97 92 83 99 99 98 95 99 91 77 79 60 65 58 67 84
13 5 5 6 6 8 11 16 25 32 29 28 29 30 36 31 46 54 71 70 76 70 78 79 73 96 93 100 100 89 96 94 81 86 99 99 93 92 91 90 78 79 74 62 56 68 84
36 4 4 5 6 7 7 13 20 29 30 29 27 28 32 32 43 47 54 69 70 69 89 72 84 100 100 90 97 95 77 95 97 95 99 98 94 92 84 73 77 81 71 75 69 76 82
18 3 4 4 6 7 6 9 13 21 26 30 23 27 27 32 43 46 50 66 77 70 94 72 75 100 100 88 77 89 82 83 96 97 95 86 77 74 92 94 77 76 83 86 82 80 80
23 5 4 4 5 6 6 8 12 14 21 28 22 27 27 36 38 47 48 56 71 72 86 75 83 79 83 89 75 90 86 88 83 97 98 98 90 76 92 86 90 83 82 87 86 87 82
62 13 4 4 5 5 5 7 12 14 22 26 25 26 31 32 37 43 53 54 70 88 99 96 71 89 90 94 100 99 98 99 83 81 100 99 99 95 99 93 86 79 78 72 88 92 80
80 22 4 4 4 5 5 8 13 16 20 27 25 27 37 36 39 42 50 56 71 88 96 87 76 84 91 96 96 100 95 98 97 99 86 94 100 88 100 93 77 90 93 77 70 80 78
81 44 4 3 4 5 5 9 14 17 20 25 26 30 38 38 38 44 52 61 77 84 86 93 89 92 88 97 91 98 100 93 100 96 79 77 98 100 99 98 89 89 79 84 86 93 86
98 73 4 3 4 5 5 10 15 20 24 25 27 29 39 36 44 44 57 66 80 96 93 90 91 91 98 85 92 84 93 97 93 78 70 73 77 98 100 99 94 97 92 85 78 78 83
100 85 8 3 4 5 5 10 17 23 24 22 20 27 35 39 45 59 65 77 87 96 94 93 94 85 87 87 97 90 84 95 85 80 73 67 72 98 99 94 96 91 88 93 79 86 88
100 87 18 3 4 5 5 11 18 18 19 19 22 24 32 43 48 66 75 89 87 88 84 82 97 93 87 90 88 85 88 85 82 78 78 73 81 95 100 95 98 99 97 97 96 92 85
92 90 33 3 4 5 5 11 15 18 15 16 21 24 29 43 50 60 82 90 81 75 78 76 91 94 88 87 85 82 84 89 100 97 91 85 81 76 71 71 79 89 93 98 99 95 88
95 99 43 3 4 5 4 9 13 17 15 18 21 26 31 32 48 67 87 100 95 88 81 76 74 80 89 94 94 88 82 84 96 99 100 97 90 84 82 84 82 78 75 87 97 99 99
99 100 39 3 4 5 4 6 12 13 18 21 22 24 22 39 47 64 88 94 88 96 92 95 82 66 72 81 87 79 87 77 83 87 98 95 92 84 83 78 72 67 71 74 74 73 100
100 92 40 3 5 5 5 7 9 15 20 21 22 24 25 33 43 56 85 92 89 87 93 93 94 82 69 77 83 80 79 77 70 82 86 90 86 85 82 72 66 56 38 42 44 49 63
100 99 39 4 5 5 6 6 8 15 18 23 22 24 22 25 34 50 76 92 92 89 94 93 94 92 86 85 83 79 82 85 83 76 75 80 88 90 84 72 84 48 48 44 47 48 56
99 100 23 4 5 4 5 7 8 12 16 19 20 22 24 23 29 37 57 84 95 86 95 95 92 95 96 96 93 92 94 86 81 86 86 82 87 87 81 83 60 49 58 64 60 60 79
100 99 18 4 5 4 5 8 10 12 15 17 18 21 23 23 27 34 39 54 94 100 93 91 93 96 99 99 97 93 77 86 92 97 96 97 96 96 89 80 80 73 72 71 74 80 77
100 99 17 5 5 4 5 9 10 12 14 14 12 15 21 24 31 38 40 49 49 53 86 93 91 97 95 94 91 94 86 82 82 86 88 97 97 95 95 87 70 60 62 69 81 82 84
100 99 53 6 4 5 6 10 9 9 9 13 20 26 31 34 38 45 46 48 54 61 51 57 81 93 98 98 94 88 85 84 86 77 79 78 86 94 98 96 77 81 82 83 86 83 81
100 66 23 11 5 6 9 9 7 9 16 23 25 28 35 36 40 47 50 54 57 56 66 56 74 93 98 97 92 90 85 84 79 77 83 89 83 81 74 68 65 71 76 82 88 83 82
Wind_Speed
25 25 27 28 28 25 24 23 23 22 24 26 25 28 26 22 23 23 18 15 14 12 13 13 13 9 7 5 11 7 18 38 27 34 34 30 33 36 34 39 42 40 35 36 29 28 29
25 24 27 27 28 26 25 24 23 22 23 27 26 27 25 21 20 23 19 16 15 16 16 16 14 11 8 7 10 15 14 25 25 35 34 29 33 30 31 32 37 35 32 29 30 24 25
27 24 25 26 28 27 24 25 25 24 24 26 27 26 26 20 18 22 20 18 14 15 15 15 12 10 11 7 7 14 17 23 37 29 32 28 27 29 29 27 32 22 25 22 23 26 33
28 26 25 25 26 28 25 25 26 26 25 24 27 27 25 21 17 19 19 18 15 12 12 10 10 10 9 4 4 14 18 20 33 37 33 22 29 25 22 20 26 20 21 25 26 25 25
28 27 26 24 26 28 27 26 27 27 26 22 26 27 24 21 17 15 18 16 15 10 9 7 8 7 5 5 3 10 18 22 32 36 36 25 31 26 22 24 23 22 22 26 26 28 29
26 28 26 25 24 27 29 26 27 29 27 24 24 26 24 22 16 12 14 15 16 13 9 4 7 5 11 14 4 7 21 28 36 38 41 30 34 28 26 27 31 28 18 19 24 24 26
26 27 25 24 25 26 28 27 28 29 28 25 22 24 23 21 16 13 9 11 13 17 11 10 8 9 14 17 8 22 29 42 31 37 37 21 38 36 31 27 18 24 18 18 18 12 24
28 28 25 24 26 26 28 29 26 27 28 25 23 23 21 20 18 12 9 6 9 11 14 13 11 10 12 15 10 19 31 32 31 44 31 26 33 31 24 18 15 18 21 22 16 12 10
23 27 25 24 25 26 27 31 29 28 27 25 23 22 19 18 17 13 9 5 5 8 9 11 9 10 9 12 14 23 27 24 29 42 26 24 28 28 26 20 15 14 22 21 16 15 10
22 25 25 24 25 26 26 29 30 29 27 24 22 21 17 17 17 12 8 6 5 6 4 10 7 8 8 13 13 17 18 22 26 33 21 17 28 30 25 25 12 14 12 15 17 15 9
26 23 24 24 24 26 28 30 31 29 27 23 22 20 15 15 14 11 10 7 5 3 4 6 8 11 13 13 17 13 13 12 24 28 9 13 28 28 21 22 19 6 12 14 12 13 13
24 21 23 24 24 25 27 29 30 29 25 21 22 18 14 13 12 11 11 7 4 2 1 3 3 9 12 15 14 15 15 12 11 18 11 21 26 24 21 18 21 10 14 12 10 9 5
24 20 23 23 23 25 25 28 27 28 22 20 21 18 14 12 11 10 10 9 1 3 4 2 1 4 10 11 9 12 14 15 15 12 21 22 25 22 23 19 19 17 19 4 1 3 4
24 20 22 23 23 25 24 25 24 24 20 19 20 17 14 13 10 10 9 6 1 3 4 5 3 8 9 11 11 10 13 14 15 15 27 10 12 22 25 25 15 18 17 6 5 4 3
25 21 22 23 23 25 24 22 22 21 19 19 20 16 13 12 11 9 7 1 3 5 9 12 10 5 4 2 5 6 13 15 17 27 6 9 8 25 20 28 22 22 15 9 4 1 1
22 22 22 22 22 24 24 21 21 20 18 18 19 15 12 11 11 9 5 2 2 8 11 8 4 2 2 2 4 7 7 21 22 20 10 14 11 21 21 26 24 15 23 10 7 2 3
23 23 23 23 22 23 24 20 20 17 16 17 18 16 11 11 12 10 3 2 3 9 8 3 4 3 1 3 2 6 5 21 26 13 7 17 8 17 22 18 20 19 20 13 10 8 3
28 23 24 22 22 22 23 19 18 16 16 17 18 15 12 10 11 7 4 1 4 9 5 2 4 7 6 2 2 2 7 6 17 18 10 7 5 9 17 16 19 21 20 21 12 6 11
25 22 24 22 21 21 22 18 16 15 16 17 16 17 12 8 6 6 4 2 5 5 5 3 4 6 10 7 0 0 3 4 15 15 9 12 6 9 7 15 16 20 25 24 26 14 15
23 24 23 23 20 20 21 19 16 16 18 15 14 11 11 8 6 4 2 4 5 5 3 4 6 6 8 8 4 1 2 4 8 9 14 11 9 6 11 5 11 23 26 24 26 20 23
24 25 22 23 18 19 20 20 17 18 14 11 13 9 8 9 5 4 3 4 5 4 4 3 3 6 8 6 7 4 3 4 6 8 13 11 9 8 5 4 5 7 10 15 29 35 27
30 26 23 21 18 19 20 22 17 16 13 11 11 9 8 8 5 6 5 4 5 4 7 5 5 3 6 7 6 2 9 6 6 10 14 14 5 6 4 6 9 14 16 19 21 24 33
30 26 23 20 18 18 18 21 16 15 12 11 9 8 6 6 5 7 9 7 6 6 5 7 7 7 7 7 5 7 2 5 6 6 8 9 8 4 3 9 12 15 19 23 28 30 29
28 25 23 20 19 18 17 20 15 13 10 9 8 7 6 5 4 6 7 8 11 8 8 7 4 7 8 10 9 6 7 6 5 5 7 8 9 8 4 6 3 8 10 9 11 11 14
35 27 23 20 19 18 17 17 13 11 9 8 7 7 7 7 6 5 7 10 12 11 10 7 5 8 10 13 12 8 6 6 9 9 8 8 9 4 4 10 14 18 11 5 5 5 5
38 30 22 20 19 16 17 12 10 8 6 5 6 7 8 8 6 5 6 10 13 14 14 11 9 8 9 11 12 6 5 5 6 6 15 14 13 11 6 3 4 3 1 4 5 5 6
33 35 22 20 19 15 15 8 8 6 6 7 9 9 10 10 7 6 7 9 9 12 13 14 14 12 13 13 9 7 7 8 6 7 7 14 14 16 13 7 8 6 9 7 2 2 8
41 35 25 23 19 15 10 5 6 7 7 8 10 9 8 7 7 7 8 9 8 9 9 11 13 15 12 13 9 8 7 10 9 9 8 9 9 8 11 7 7 1 4 3 6 10 12
41 24 22 23 18 14 7 6 6 6 6 6 6 6 5 2 1 4 7 7 6 7 9 11 12 10 13 10 12 9 9 9 10 6 12 9 8 4 7 2 3 3 4 8 11 15 15
Wind_Direction
341 347 349 348 351 347 347 342 342 340 337 333 335 341 346 343 342 342 345 333 324 317 321 331 332 322 322 262 215 210 208 203 200 174 173 184 189 190 193 197 206 215 218 219 223 238 233
337 346 346 347 348 347 347 343 337 337 336 335 339 341 346 343 345 346 345 337 323 316 314 316 319 314 308 280 221 202 193 215 201 179 177 180 190 185 189 199 199 211 213 220 219 215 225
333 343 343 345 345 345 346 342 340 332 334 334 339 340 346 344 347 351 349 344 332 323 319 314 316 307 305 302 251 218 201 201 197 185 184 175 182 186 188 195 197 205 203 209 215 224 230
341 341 338 344 343 341 342 342 342 338 336 335 338 342 345 344 348 354 358 352 346 342 334 327 323 319 323 349 263 220 208 197 197 178 182 171 181 180 178 184 193 200 202 210 215 209 219
337 338 338 339 340 339 341 341 340 339 342 337 336 341 343 345 344 352 11 3 12 359 354 355 2 2 30 339 258 228 213 187 188 184 179 177 173 178 177 182 177 184 196 203 218 224 230
335 334 335 334 337 338 338 341 341 339 340 338 332 338 341 345 338 347 11 14 32 33 24 16 24 32 9 3 12 200 189 174 179 176 182 174 176 177 179 181 184 188 184 186 205 207 213
332 329 329 330 333 337 337 339 340 339 341 343 334 334 341 342 339 340 351 2 17 24 40 55 44 46 38 13 71 96 172 162 177 181 187 179 174 186 185 189 196 195 188 176 202 211 219
326 324 326 326 330 335 334 334 338 336 340 341 342 328 341 340 340 333 348 343 351 5 30 21 29 36 52 66 84 131 145 160 175 180 181 186 177 182 184 183 190 192 177 183 187 206 233
319 320 323 322 326 332 333 330 334 337 339 341 343 332 340 339 342 332 336 347 338 348 347 29 19 33 59 86 112 139 155 156 174 182 183 173 174 179 179 165 159 170 207 204 206 209 217
320 318 321 319 323 328 331 327 329 335 340 341 343 335 337 339 345 330 330 352 347 318 3 19 26 43 74 100 113 146 144 158 179 191 184 171 187 177 178 178 155 166 176 202 206 199 196
307 316 319 317 319 326 329 327 326 333 341 342 342 333 336 342 346 345 336 343 14 42 41 17 40 65 95 106 124 132 174 186 151 191 159 145 171 173 177 190 183 166 178 189 198 197 208
301 314 317 316 315 322 327 325 327 333 340 341 343 335 334 339 343 358 1 356 21 88 17 42 80 83 102 110 126 142 152 206 218 145 144 152 165 173 169 168 185 177 156 165 190 191 242
296 310 315 314 313 319 326 325 329 334 340 342 344 335 332 334 336 345 339 351 24 74 140 72 356 74 89 107 158 167 181 180 174 149 147 154 165 174 178 168 163 175 158 109 117 189 224
299 305 310 314 311 318 326 326 329 333 337 340 340 337 330 324 327 335 334 335 5 100 108 145 133 109 105 102 96 152 163 170 165 181 143 138 156 180 187 186 177 169 178 171 179 193 231
300 303 307 312 309 316 324 327 327 329 333 337 339 337 329 324 322 330 333 323 63 114 137 132 97 79 113 90 123 124 156 171 166 169 149 143 143 189 188 199 201 194 200 190 100 91 310
294 302 302 307 307 315 322 326 324 326 330 330 332 334 328 320 319 324 336 338 124 144 137 118 91 151 217 217 142 126 136 163 151 162 168 168 136 178 189 198 206 206 205 198 201 164 246
286 297 295 302 304 313 321 324 320 325 330 328 326 324 327 322 315 316 338 297 153 162 158 158 127 159 214 218 164 162 145 172 168 157 148 171 162 182 188 197 203 197 201 203 200 220 187
271 287 289 296 300 309 318 321 316 322 326 321 321 317 317 316 309 317 345 197 169 173 188 169 161 156 164 161 157 122 160 156 174 200 215 180 162 156 196 204 208 214 220 213 215 214 224
266 279 283 292 295 305 314 314 313 319 319 316 316 314 311 307 292 316 329 180 172 187 206 228 171 158 160 163 92 151 158 163 192 200 207 205 165 126 168 224 222 221 219 222 231 234 233
260 272 279 286 290 300 309 309 312 316 315 314 312 306 308 301 281 292 303 186 184 204 198 203 190 172 167 177 186 199 202 185 190 203 199 198 189 189 184 173 207 222 228 226 224 235 242
257 265 271 277 286 295 307 307 314 315 314 314 320 310 299 286 288 262 206 185 188 208 204 187 213 205 200 189 195 208 213 233 210 195 197 196 208 206 203 230 233 238 243 238 227 237 237
244 263 268 276 282 294 304 301 314 316 312 318 317 313 298 287 270 246 225 199 206 222 222 218 216 212 211 211 194 216 242 251 235 210 208 218 180 203 245 259 271 270 264 256 256 258 253
242 253 265 270 272 284 295 299 312 314 313 315 323 316 296 284 267 242 223 202 208 230 243 229 218 214 206 204 209 207 211 216 226 235 221 220 219 225 238 292 292 280 271 260 259 262 262
239 251 260 265 266 280 291 295 312 313 320 323 332 312 296 289 263 234 222 207 217 214 233 220 192 199 193 189 187 195 191 200 220 241 237 241 246 253 299 305 339 274 267 269 270 269 264
231 243 248 256 261 276 285 292 309 315 318 326 327 315 299 288 271 249 220 209 213 219 233 228 218 193 182 187 191 178 195 235 234 240 240 238 228 196 218 212 266 274 279 293 278 285 277
227 238 237 253 254 269 278 291 305 309 317 324 323 310 302 299 283 243 233 226 222 223 225 232 230 200 197 193 191 192 177 190 197 207 215 215 217 216 194 228 247 182 325 314 296 223 344
223 239 230 244 250 262 271 284 293 300 316 330 320 308 291 290 276 251 239 237 233 230 226 229 234 226 199 193 208 190 190 189 189 189 207 210 218 226 227 233 276 273 289 285 274 346 336
219 237 218 235 245 252 259 267 281 298 321 329 323 319 301 288 275 254 240 238 232 231 220 223 223 220 206 193 201 211 207 193 192 191 204 204 210 215 224 225 274 72 78 18 323 315 309
220 202 212 227 231 235 222 236 270 303 335 358 356 352 339 355 244 213 236 238 233 226 220 212 204 207 198 195 197 199 209 191 197 195 214 205 210 199 211 212 186 274 291 294 308 313 309